{"data":{"norad_id":64486,"epoch":"2026-05-25T05:27:11.172096Z","epoch_age_seconds":51379,"freshness":"FRESH","line1":"1 64486U 25133Q   26145.22721264  .00016169  00000+0  55684-3 0  9999","line2":"2 64486  53.1567 121.5007 0001149  87.4137 272.6995 15.30199279 52900","mean_motion":15.30199279,"eccentricity":0.0001149,"inclination_deg":53.1567,"raan_deg":121.5007,"arg_perigee_deg":87.4137,"mean_anomaly_deg":272.6995,"bstar":0.00055684,"rev_number":5290,"period_min":94.105390047044,"perigee_km":474.42977179608,"apogee_km":476.00467259634,"semimajor_km":6853.3542221962,"source":"CELESTRAK","updated_at":"2026-05-25T13:38:20.459706Z"}}